Tracking 25734 objects as of 27-May-2022
HD Live streaming from Space Station
objects crossing your sky now

COSMOS 1823 DEB

Track COSMOS 1823 DEB now!
10-day predictions


NORAD ID: 18758
Int'l Code: 1987-020AK
Perigee: 1,481.4 km
Apogee: 1,564.0 km
Inclination: 73.6 °
Period: 116.3 minutes
Semi major axis: 7893 km
RCS: 0.06 m2 (small)
Launch date: February 20, 1987
Source: Commonwealth of Independent States (former USSR) (CIS)
Launch site: PLESETSK MISSILE AND SPACE COMPLEX (PKMTR)

Note: This is SATELLITE DEBRIS
aabbcc
Your satellite tracking list
Your tracking list is empty




NASA's NSSDC Master Catalog

Two Line Element Set (TLE):
1 18758U 87020AK  22146.90220219  .00000028  00000-0  34842-3 0  9990
2 18758  73.6284  11.9222 0052346 303.2440  69.4455 12.37895707554763
Source of the keplerian elements: AFSPC